TimeMST,TemperatureF,Dew PointF,Humidity,Sea Level PressureIn,VisibilityMPH,Wind Direction,Wind SpeedMPH,Gust SpeedMPH,PrecipitationIn,Events,Conditions,WindDirDegrees,DateUTC
12:52 AM,10.0,6.1,84,30.26,10.0,South,3.5,-,N/A,,Clear,190,2013-02-19 07:52:00
1:52 AM,10.0,6.1,84,30.25,10.0,ENE,3.5,-,N/A,,Clear,70,2013-02-19 08:52:00
2:52 AM,8.1,3.9,83,30.28,10.0,Calm,Calm,-,N/A,,Clear,0,2013-02-19 09:52:00
3:52 AM,7.0,3.0,84,30.30,10.0,Calm,Calm,-,N/A,,Scattered Clouds,0,2013-02-19 10:52:00
4:52 AM,7.0,1.9,80,30.30,10.0,Calm,Calm,-,N/A,,Mostly Cloudy,0,2013-02-19 11:52:00
5:09 AM,6.8,1.4,79,30.15,10.0,ENE,3.5,-,N/A,,Scattered Clouds,70,2013-02-19 12:09:00
5:52 AM,5.0,1.0,84,30.32,10.0,Calm,Calm,-,N/A,,Scattered Clouds,0,2013-02-19 12:52:00
6:10 AM,5.0,1.4,85,30.16,10.0,Calm,Calm,-,N/A,,Mostly Cloudy,0,2013-02-19 13:10:00
6:31 AM,5.0,-0.4,78,30.16,10.0,Calm,Calm,-,N/A,,Scattered Clouds,0,2013-02-19 13:31:00
6:52 AM,5.0,1.0,84,30.32,5.0,Calm,Calm,-,N/A,,Mostly Cloudy,0,2013-02-19 13:52:00
7:05 AM,6.8,1.4,79,30.16,10.0,Calm,Calm,-,N/A,,Scattered Clouds,0,2013-02-19 14:05:00
7:52 AM,10.0,6.1,84,30.32,10.0,Calm,Calm,-,N/A,,Clear,0,2013-02-19 14:52:00
8:52 AM,19.0,12.0,74,30.32,10.0,East,5.8,-,N/A,,Clear,100,2013-02-19 15:52:00
9:52 AM,21.0,12.9,71,30.29,10.0,East,6.9,-,N/A,,Partly Cloudy,100,2013-02-19 16:52:00
11:52 AM,28.0,16.0,61,30.24,10.0,ESE,10.4,18.4,N/A,,Clear,120,2013-02-19 18:52:00
12:52 PM,30.9,17.1,57,30.20,10.0,ESE,15.0,19.6,N/A,,Clear,110,2013-02-19 19:52:00
1:52 PM,30.9,16.0,54,30.17,10.0,SE,16.1,23.0,N/A,,Clear,130,2013-02-19 20:52:00
2:52 PM,34.0,17.1,50,30.15,10.0,SE,20.7,25.3,N/A,,Clear,130,2013-02-19 21:52:00
3:52 PM,33.1,17.1,52,30.15,10.0,ESE,17.3,-,N/A,,Clear,120,2013-02-19 22:52:00
5:52 PM,26.1,15.1,63,30.16,10.0,ESE,17.3,-,N/A,,Clear,110,2013-02-20 00:52:00
6:52 PM,24.1,12.9,62,30.17,10.0,East,15.0,-,N/A,,Clear,100,2013-02-20 01:52:00
8:52 PM,23.0,10.9,60,30.14,10.0,ESE,12.7,18.4,N/A,,Clear,120,2013-02-20 03:52:00
9:52 PM,21.9,8.1,55,30.14,10.0,SE,12.7,-,N/A,,Clear,130,2013-02-20 04:52:00
10:52 PM,19.9,7.0,57,30.13,10.0,SE,16.1,23.0,N/A,,Clear,130,2013-02-20 05:52:00
11:52 PM,19.9,7.0,57,30.11,10.0,ESE,15.0,24.2,N/A,,Clear,120,2013-02-20 06:52:00